[Iaude] MPEC S35: 2016 SC

mpec at si.edu mpec at si.edu
Thu Sep 29 16:08:08 EDT 2016


M.P.E.C. 2016-S35                                Issued 2016 Sept. 24, 18:35 UT
 
     The Minor Planet Electronic Circulars contain information on unusual
         minor planets and routine data on comets.  They are published
    on behalf of Division F of the International Astronomical Union by the
          Minor Planet Center, Smithsonian Astrophysical Observatory,
                          Cambridge, MA 02138, U.S.A.

             Prepared using the Tamkin Foundation Computer Network

                              MPC at CFA.HARVARD.EDU
            URL http://www.minorplanetcenter.net/    ISSN 1523-6714


                                    2016 SC
 
Observations:
     K16S00C* C2016 09 22.15481 22 47 21.04 +09 09 50.1                qES035703
     K16S00C  C2016 09 22.16083 22 47 31.91 +09 10 40.0          19.3 VqES035703
     K16S00C  C2016 09 22.16685 22 47 42.70 +09 11 29.8          19.3 VqES035703
     K16S00C  C2016 09 22.17287 22 47 53.53 +09 12 20.3          18.7 VqES035703
     K16S00C  C2016 09 22.22579 22 49 28.71 +09 19 34.5                qES035703
     K16S00C  C2016 09 22.22629 22 49 29.50 +09 19 39.2          18.7 VqES035703
     K16S00C  C2016 09 22.22680 22 49 30.39 +09 19 42.6          19.0 VqES035703
     K16S00C  C2016 09 22.25728 22 50 25.71 +09 23 52.5          19.1 VqES035G96
     K16S00C  C2016 09 22.25770 22 50 26.47 +09 23 55.9          19.0 VqES035G96
     K16S00C  C2016 09 22.25811 22 50 27.24 +09 23 59.3          19.0 VqES035G96
     K16S00C  C2016 09 22.25855 22 50 28.04 +09 24 03.0          19.2 VqES035G96
     K16S00C  C2016 09 22.40198 22 55 01.95 +09 43 20.5          19.6 VqES035703
     K16S00C  C2016 09 22.40248 22 55 02.92 +09 43 23.7          18.9 VqES035703
     K16S00C  C2016 09 22.40349 22 55 05.03 +09 43 31.7          19.2 VqES035703
     K16S00C KC2016 09 22.79472023 11 34.24 +10 38 15.8          18.6 RqES035J95
     K16S00C KC2016 09 22.79985323 11 46.92 +10 39 05.5                qES035J95
     K16S00C KC2016 09 22.80462523 11 58.74 +10 39 53.0          18.9 RqES035J95
     K16S00C KC2016 09 22.88613 23 15 07.15 +10 54 19.6          18.8 V ES035L04
     K16S00C KC2016 09 22.88775 23 15 11.10 +10 54 35.5          19.2 V ES035L04
     K16S00C KC2016 09 22.95576 23 18 02.22 +11 05 18.0          18.6 RoES035461
     K16S00C KC2016 09 22.95893 23 18 10.17 +11 05 48.2          18.6 RoES035461
     K16S00C KC2016 09 22.96160 23 18 16.94 +11 06 14.0          18.4 RoES035461
     K16S00C KC2016 09 23.09461 23 25 17.43 +11 29 20.7          18.6 RqES035H36
     K16S00C KC2016 09 23.09679 23 25 23.43 +11 29 43.7          18.8 RqES035H36
     K16S00C KC2016 09 23.09898 23 25 29.47 +11 30 08.1          19.3 RqES035H36
     K16S00C KC2016 09 23.10224 23 25 38.29 +11 30 42.3          18.5 RqES035H36
     K16S00C  C2016 09 23.12230 23 26 44.25 +11 35 21.0          18.3 RoES035926
     K16S00C  C2016 09 23.12334 23 26 47.15 +11 35 32.2          18.4 RoES035926
     K16S00C  C2016 09 23.12439 23 26 50.04 +11 35 44.0          18.3 RoES035926
     K16S00C KC2016 09 23.83182000 06 45.83 +13 37 06.8                qES035J95
     K16S00C KC2016 09 23.83407600 06 54.33 +13 37 33.3                qES035J95
     K16S00C KC2016 09 23.83482800 06 57.17 +13 37 42.2                qES035J95
     K16S00C KC2016 09 23.83572400 07 00.54 +13 37 52.7          18.2 RqES035J95
     K16S00C KC2016 09 23.86857 00 08 54.08 +13 45 33.8          18.2 RoES035461
     K16S00C KC2016 09 23.87167 00 09 05.54 +13 46 09.1          18.3 RoES035461
     K16S00C KC2016 09 23.87481 00 09 17.20 +13 46 44.9          18.2 RoES035461
     K16S00C KC2016 09 23.89488 00 10 42.32 +13 48 55.7          18.2 VqES035Z99
     K16S00C KC2016 09 23.89782 00 10 53.44 +13 49 28.9          18.6 VqES035Z99
     K16S00C KC2016 09 23.90078 00 11 04.71 +13 50 03.4          18.6 VqES035Z99
     K16S00C KC2016 09 23.93450 00 13 17.36 +13 58 37.7          18.5 VqES035958
     K16S00C KC2016 09 23.93873 00 13 33.37 +13 59 26.0          18.7 VqES035958
     K16S00C KC2016 09 23.94714 00 14 05.14 +14 01 01.4          18.4 VqES035958
     K16S00C KC2016 09 24.01583 00 18 15.65 +14 12 22.1          18.4 VSES035C47
     K16S00C KC2016 09 24.01806 00 18 24.35 +14 12 45.5          18.0 VSES035C47
     K16S00C KC2016 09 24.02032 00 18 33.15 +14 13 09.3          18.4 VSES035C47
     K16S00C KC2016 09 24.02339 00 18 45.19 +14 13 41.8          18.7 VSES035C47
 
Observer details:
461 University of Szeged, Piszkesteto Stn. (Konkoly).  Observer K. Sarneczky.
    0.60-m Schmidt + CCD.
703 Catalina Sky Survey.  Observer G. J. Leonard.  Measurers E. J. Christensen,
    D. C. Fuls, A. R. Gibbs, A. D. Grauer, J. A. Johnson, R. A. Kowalski,
    S. M. Larson, G. J. Leonard, R. G. Matheny, R. L. Seaman, F. C. Shelly.
    0.68-m Schmidt + CCD.
926 Tenagra II Observatory.  Observers M. Schwartz, P. R. Holvorcem.  Measurer
    M. Schwartz.  0.81-m f/7 Ritchey-Chretien + CCD.
958 Observatoire de Dax.  Observers P. Dupouy, J. B. de Vanssay.  Measurer
    P. Dupouy.  0.43-m f/2.7 reflector + CCD.
C47 Nonndorf.  Observer G. Dangl.  0.25-m f/4.8 reflector + CCD.
G96 Mt. Lemmon Survey.  Observer R. A. Kowalski.  Measurers E. J. Christensen,
    D. C. Fuls, A. R. Gibbs, A. D. Grauer, J. A. Johnson, R. A. Kowalski,
    S. M. Larson, G. J. Leonard, R. G. Matheny, R. L. Seaman, F. C. Shelly.
    1.5-m reflector + 10K CCD.
H36 Sandlot Observatory, Scranton.  Observer G. Hug.  0.56-m reflector + CCD.
J95 Great Shefford.  Observer P. Birtwhistle.  0.40-m f/6.0 Schmidt-Cassegrain
    + CCD.
L04 ROASTERR-1 Observatory, Cluj-Napoca.  Observer L. Hudin.  0.3-m f/5.0
    reflector + CCD.
Z99 Clixby Observatory, Cleethorpes.  Observer A. Mickleburgh.  0.36-m f/8
    Schmidt-Cassegrain + CCD.
 
Orbital elements:
2016 SC                                                  Earth MOID = 0.0030 AU
Epoch 2016 July 31.0 TT = JDT 2457600.5                 MPC
M 319.09284              (2000.0)            P               Q
n   0.54300944     Peri.  200.84395     +0.91124973     -0.41184467
a   1.4879824      Node   183.48065     +0.38411990     +0.85232844
e   0.3334521      Incl.    2.65383     +0.14857940     +0.32236657
P   1.82           H   27.8           G   0.15           U   6
Residuals in seconds of arc
160922 703  0.8-  0.7-    160922 J95  0.0   0.0     160923 J95  0.4-  0.1-
160922 703  0.1+  0.5-    160922 L04  0.1+  0.0     160923 461  0.5+  0.6+
160922 703  0.0   0.4-    160922 L04  0.0   0.3+    160923 461  0.0   0.6+
160922 703  0.4+  0.5+    160922 461  0.5+  0.6+    160923 461  0.2+  0.7+
160922 703 (1.8+  0.7-)   160922 461  0.4-  0.4+    160923 Z99  1.2+  0.2+
160922 703  0.1+  0.1-    160922 461  0.2-  0.7+    160923 Z99  0.6+  0.2-
160922 703  0.3-  0.8-    160923 H36  0.0   0.1-    160923 Z99  1.0+  0.4+
160922 G96  0.0   0.1+    160923 H36  0.5+  0.3-    160923 958  0.7+  0.1+
160922 G96  0.1-  0.0     160923 H36  1.1+  0.7+    160923 958  1.0+  0.2+
160922 G96  0.3+  0.1+    160923 H36  0.4-  0.2+    160923 958  0.2+  0.2+
160922 G96  0.2+  0.2+    160923 926  0.2-  0.1+    160924 C47  0.0   0.3+
160922 703  0.2+  0.9+    160923 926  0.1-  0.0     160924 C47  0.1-  0.1+
160922 703  0.5-  0.1+    160923 926  0.5-  0.4+    160924 C47  0.6-  0.1+
160922 703  0.4+  0.0     160923 J95  0.1-  0.4-    160924 C47  0.3-  0.2+
160922 J95  0.2+  0.3+    160923 J95  0.3-  0.3-
160922 J95  0.2-  0.5-    160923 J95  0.2-  0.2-

Ephemeris:
2016 SC                  a,e,i = 1.49, 0.33, 3                   q = 0.9918
Date    TT    R. A. (2000) Decl.     Delta      r     Elong.  Phase     V
2016 08 25    20 52 12.5 -01 02 15   0.1016  1.1050   157.0    20.9    24.1
...
2016 09 09    20 58 09.2 +00 42 00   0.05180 1.0508   146.4    32.0    22.8
...
2016 09 17    21 26 00.1 +03 13 30   0.02731 1.0279   146.3    32.9    21.4
...
2016 09 23    23 20 12.6 +11 20 23   0.01096 1.0140   164.9    14.9    18.9
2016 09 24    00 17 21.4 +14 18 33   0.0091081.0120   165.8    14.1    18.4
2016 09 25    01 37 48.8 +16 55 17   0.0080521.0100   152.6    27.2    18.6
...
2016 10 01    06 46 59.9 +08 39 14   0.01870 1.0001    86.1    92.8    22.5
...
2016 10 09    07 42 53.9 +04 36 25   0.04174 0.9921    79.5    98.1    24.4
...
2016 10 24    08 08 12.8 +02 46 59   0.08426 0.9941    87.2    87.9    25.5

A. U. Tomatic                (C) Copyright 2016 MPC           M.P.E.C. 2016-S35




More information about the Iaude mailing list